Regional Weather Roundup
Issued by NWS

Home | Current Version | Previous Version | Text Only | Print | Product List | Glossary Off
Versions: 1 2 3 4 5 6 7 8 9 10 11 12 13 14 15 16 17 18 19 20 21 22 23 24 25 26 27 28 29 30 31 32 33 34 35 36 37 38 39 40 41 42 43 44 45 46 47 48 49 50

580
ASUS45 KTFX 300210
RWRMT
MONTANA REGIONAL WEATHER ROUNDUP
NATIONAL WEATHER SERVICE GREAT FALLS MT
800 PM MDT SUN MAY 29 2016

NOTE: "FAIR" INDICATES FEW OR NO CLOUDS BELOW 12000 FEET WITH NO
SIGNIFICANT WEATHER AND/OR OBSTRUCTIONS TO VISIBILITY.

MTZ001>007-043-300300-
WEST OF THE DIVIDE

CITY           SKY/WX    TMP DP  RH WIND       PRES   REMARKS
KALISPELL      SUNNY     62  43  49 S12       29.91S
MISSOULA       PTSUNNY   63  44  50 E6        29.96R
BUTTE          CLOUDY    62  31  31 NW6       30.01R
MULLAN PASS    MOSUNNY   49  31  49 VRB7G17   30.04S
ANACONDA         N/A     59  39  47 N7        30.00R
DEER LODGE       N/A     57  39  51 W13       30.01R
EUREKA           N/A     57  43  58 N14G20      N/A
HAMILTON         N/A     61  45  55 NW10      29.97S
LIBBY            N/A     66  36  32 S3        29.92R
$$

MTZ008-052>055-300300-
SOUTHWEST MONTANA

CITY           SKY/WX    TMP DP  RH WIND       PRES   REMARKS
BOZEMAN        MOCLDY    69  44  40 E3        29.94F
DILLON         CLOUDY    66  34  30 S8        29.96S
W YELLOWSTONE  CLOUDY    57  28  33 W3        30.08S
ENNIS          MOCLDY    63  34  34 CALM      30.06R
$$

MTZ009-010-012-014-046-048-049-054-300300-
EAST SLOPES AND CENTRAL MONTANA

CITY           SKY/WX    TMP DP  RH WIND       PRES   REMARKS
CUT BANK         N/A     59  38  45 SW16      29.92F
GREAT FALLS    PTCLDY    61  43  51 SW5       29.94S
MALMSTROM AFB  CLEAR     63  42  46 SW6       29.94S
HELENA         PTSUNNY   67  39  35 CALM      29.94F
CHOTEAU          N/A     57  45  62 E9        29.97F
$$

MTZ011-013-016-021-045-047-050-051-300300-
NORTH CENTRAL MONTANA

CITY           SKY/WX    TMP DP  RH WIND       PRES   REMARKS
HAVRE          CLOUDY    63  46  54 NW12      29.91R
LEWISTOWN      CLEAR     66  39  37 NE5       29.96S
N BAR RANCH    MOCLDY    61  41  48 E5        29.99S
CHINOOK          N/A     66  43  42 N5        29.89S
$$

MTZ017>020-022>027-061-062-300300-
NORTHEAST MONTANA

CITY           SKY/WX    TMP DP  RH WIND       PRES   REMARKS
GLASGOW        CLEAR     69  40  34 W6        29.90S
JORDAN           N/A     71  46  40 NE6       29.90F
SIDNEY         CLEAR     72  43  35 W9        29.91R
WOLF POINT     CLEAR     72  40  31 W5        29.90F
POPLAR           N/A     70  41  35 W5        29.91F
$$

MTZ028>42-056>058-300300-
SOUTHCENTRAL AND SOUTHEAST MONTANA

CITY           SKY/WX    TMP DP  RH WIND       PRES   REMARKS
BAKER          CLEAR     72  41  32 CALM      29.96S
BILLINGS       PTCLDY    72  42  34 E10       29.92S
LIVINGSTON     PTCLDY    64  39  39 NE3       29.95S
MILES CITY     CLEAR     77  36  22 CALM      29.91S
FORSYTH          N/A     72  46  40 E5        29.91R
$$

REGIONAL REPORTS...DAKOTAS

CITY           SKY/WX    TMP DP  RH WIND       PRES   REMARKS
WILLISTON      CLEAR     70  41  34 NW6       29.91S
MINOT          CLEAR     70  42  36 NW5       29.91S
DICKINSON      PTCLDY    71  39  31 N5        29.93S
BEACH            N/A     68  41  37 CALM      29.98S
CROSBY           N/A     64  45  48 W8        29.93S
WATFORD CITY     N/A     70  41  35 CALM      29.92S
BISMARCK       CLOUDY    71  49  45 SW8       29.94R
GRAND FORKS    CLEAR     68  54  60 CALM      29.90S
FARGO          CLEAR     71  49  45 N3        29.91S
BUFFALO SD       N/A     69  50  50 SE10      29.90S
RAPID CITY     CLEAR     67  53  61 E8        29.96S
$$

REGIONAL REPORTS...WYOMING/IDAHO/WASHINGTON

CITY           SKY/WX    TMP DP  RH WIND       PRES   REMARKS
GILLETTE       CLEAR     69  43  38 E7        29.98S
SHERIDAN       CLEAR     71  45  39 E3        29.94S
BUFFALO WY     CLEAR     68  41  37 NE6       29.99F
CODY           CLEAR     70  36  28 SW6       29.97S
YELLOWSTONE LA   N/A     54  27  35 VRB5      30.17F
IDAHO FALLS    CLOUDY    66  40  38 S16       30.00R
SALMON         SUNNY     72  27  18 W12       29.90S
BOISE          SUNNY     78  31  17 N8        29.92S
SPOKANE        MOSUNNY   68  32  26 W16G25    29.95S
$$

REGIONAL REPORTS...ALBERTA

CITY           SKY/WX    TMP DP  RH WIND       PRES   REMARKS
EDMONTON       CLOUDY    52  43  71 N18G24    29.93R
CALGARY        LGT RAIN  52  43  71 NW20      29.92R
LETHBRIDGE     PTSUNNY   63  48  59 VRB2      29.85F
MEDICINE HAT   PTSUNNY   66  43  42 SW5       29.83F
WATERTON GATE    N/A     57  37  47 SW7         N/A
CARDSTON         N/A     61  36  39 SW7         N/A
MILK RIVER       N/A     61  39  44 SW13G20     N/A
$$

REGIONAL REPORTS...SASKATCHEWAN

CITY           SKY/WX    TMP DP  RH WIND       PRES   REMARKS
SWIFT CURRENT  PTCLDY    64  45  48 W6        29.86S
REGINA         PTCLDY    66  43  42 W5        29.88S
SASKATOON      PTCLDY    64  48  55 NE9       29.88R
CYPRESS HILLS    N/A     59  34  38 SW6         N/A
VAL MARIE        N/A     68  37  32 W8          N/A
ROCKGLEN         N/A     64  46  52 W3          N/A
$$




USA.gov is the U.S. government's official web portal to all federal, state and local government web resources and services.